When you browse on this site, cookies collect data to enhance your experience and personalize the content and advertising you see.
Visit our Privacy Policy to learn more. By continuing to use the site, you agree to this use of cookies and data.
  • In Hungary
  • List of Countries
  • For 7 days
  • Water Temperature
  • Weather Map
  • News
  • Weather Widgets
  • user-avatar
    Login

    Hourly Weather Mitu

    Today, 15 November, Friday

    Time Temperature Precipitation Wind Pressure Humidity
    00:00 +23°C° 1.7 mm 0 mps 737 mmHg 97%
    01:00 +22°C° 0 mm 0 mps 736 mmHg 99%
    02:00 +22°C° 0.5 mm 0 mps 736 mmHg 98%
    03:00 +22°C° 0.5 mm 0 mps 736 mmHg 98%
    04:00 +22°C° 0.5 mm 0 mps 737 mmHg 98%
    05:00 +23°C° 0 mm 0 mps 737 mmHg 97%
    06:00 +23°C° 0 mm 0 mps 737 mmHg 96%
    07:00 +24°C° 0 mm 0 mps 737 mmHg 95%
    08:00 +26°C° 0.7 mm 0 mps 738 mmHg 89%
    09:00 +30°C° 0.7 mm 1 mps 738 mmHg 83%
    10:00 +31°C° 0.7 mm 1 mps 738 mmHg 77%
    11:00 +32°C° 1.3 mm 1 mps 737 mmHg 75%
    12:00 +32°C° 1.3 mm 1 mps 736 mmHg 73%
    13:00 +32°C° 1.3 mm 1 mps 735 mmHg 71%
    14:00 +32°C° 0.3 mm 1 mps 734 mmHg 72%
    15:00 +31°C° 0.3 mm 1 mps 734 mmHg 73%
    16:00 +31°C° 0.3 mm 1 mps 734 mmHg 74%
    17:00 +27°C° 0.1 mm 0 mps 734 mmHg 78%
    18:00 +26°C° 0.1 mm 0 mps 735 mmHg 83%
    19:00 +25°C° 0.1 mm 0 mps 735 mmHg 87%
    20:00 +24°C° 0 mm 0 mps 736 mmHg 88%
    21:00 +24°C° 0 mm 0 mps 737 mmHg 89%
    22:00 +24°C° 0 mm 0 mps 737 mmHg 91%
    23:00 +23°C° 0.2 mm 0 mps 737 mmHg 92%

    Tomorrow, 16 November, Saturday

    Time Temperature Precipitation Wind Pressure Humidity
    00:00 +23°C° 0.2 mm 0 mps 736 mmHg 94%
    01:00 +23°C° 0.2 mm 0 mps 735 mmHg 95%
    02:00 +23°C° 0.1 mm 0 mps 735 mmHg 96%
    03:00 +22°C° 0.1 mm 0 mps 735 mmHg 97%
    04:00 +22°C° 0.1 mm 0 mps 735 mmHg 97%
    05:00 +23°C° 0 mm 0 mps 735 mmHg 95%
    06:00 +24°C° 0 mm 0 mps 736 mmHg 93%
    07:00 +25°C° 0 mm 0 mps 736 mmHg 91%
    08:00 +26°C° 0.9 mm 0 mps 736 mmHg 87%
    09:00 +29°C° 0.9 mm 1 mps 737 mmHg 83%
    10:00 +30°C° 0.9 mm 1 mps 737 mmHg 79%
    11:00 +32°C° 0.4 mm 1 mps 736 mmHg 73%
    12:00 +33°C° 0.4 mm 1 mps 735 mmHg 66%
    13:00 +34°C° 0.4 mm 1 mps 734 mmHg 59%
    14:00 +33°C° 0.4 mm 1 mps 733 mmHg 64%
    15:00 +32°C° 0.4 mm 1 mps 733 mmHg 69%
    16:00 +31°C° 0.4 mm 1 mps 733 mmHg 74%
    17:00 +28°C° 0.3 mm 0 mps 733 mmHg 80%
    18:00 +26°C° 0.3 mm 0 mps 733 mmHg 85%
    19:00 +24°C° 0.3 mm 0 mps 734 mmHg 91%
    20:00 +24°C° 0.3 mm 0 mps 734 mmHg 92%
    21:00 +24°C° 0.3 mm 0 mps 735 mmHg 93%
    22:00 +24°C° 0.3 mm 0 mps 735 mmHg 94%
    23:00 +23°C° 0.1 mm 0 mps 735 mmHg 95%

    Day after tomorrow, 17 November, Sunday

    Time Temperature Precipitation Wind Pressure Humidity
    00:00 +23°C° 0.1 mm 0 mps 734 mmHg 96%
    01:00 +23°C° 0.1 mm 0 mps 734 mmHg 97%
    02:00 +23°C° 0 mm 0 mps 734 mmHg 97%
    03:00 +22°C° 0 mm 0 mps 734 mmHg 98%
    04:00 +22°C° 0 mm 0 mps 734 mmHg 98%
    05:00 +23°C° 0.4 mm 0 mps 735 mmHg 97%
    06:00 +24°C° 0.4 mm 0 mps 736 mmHg 95%
    07:00 +24°C° 0.4 mm 0 mps 736 mmHg 94%
    08:00 +25°C° 1.1 mm 0 mps 736 mmHg 92%
    09:00 +28°C° 1.1 mm 1 mps 737 mmHg 90%
    10:00 +30°C° 1.1 mm 1 mps 737 mmHg 88%
    11:00 +30°C° 1.3 mm 1 mps 736 mmHg 88%
    12:00 +29°C° 1.3 mm 1 mps 735 mmHg 89%
    13:00 +29°C° 1.3 mm 1 mps 734 mmHg 90%
    14:00 +29°C° 0.8 mm 1 mps 734 mmHg 91%
    15:00 +29°C° 0.8 mm 1 mps 733 mmHg 93%
    16:00 +28°C° 0.8 mm 1 mps 733 mmHg 95%
    17:00 +27°C° 0.1 mm 1 mps 734 mmHg 96%
    18:00 +26°C° 0.1 mm 1 mps 734 mmHg 97%
    19:00 +25°C° 0.1 mm 1 mps 735 mmHg 98%
    20:00 +25°C° 0 mm 1 mps 735 mmHg 98%
    21:00 +25°C° 0 mm 1 mps 736 mmHg 98%
    22:00 +24°C° 0 mm 1 mps 736 mmHg 98%
    23:00 +24°C° 0 mm 1 mps 736 mmHg 99%

    18 November, Monday

    Time Temperature Precipitation Wind Pressure Humidity
    00:00 +24°C° 0 mm 1 mps 735 mmHg 99%
    01:00 +22°C° 0 mm 0 mps 735 mmHg 99%
    02:00 +22°C° 0 mm 0 mps 735 mmHg 99%
    03:00 +22°C° 0 mm 0 mps 735 mmHg 98%
    04:00 +22°C° 0 mm 0 mps 735 mmHg 98%
    05:00 +23°C° 0 mm 0 mps 736 mmHg 97%
    06:00 +23°C° 0 mm 0 mps 736 mmHg 95%
    07:00 +23°C° 0 mm 0 mps 737 mmHg 94%
    08:00 +26°C° 0 mm 0 mps 737 mmHg 82%
    09:00 +28°C° 0 mm 0 mps 737 mmHg 70%
    10:00 +31°C° 0 mm 0 mps 737 mmHg 58%
    11:00 +32°C° 0 mm 0 mps 736 mmHg 54%
    12:00 +33°C° 0 mm 0 mps 736 mmHg 49%
    13:00 +34°C° 0 mm 0 mps 735 mmHg 44%
    14:00 +34°C° 0.2 mm 1 mps 735 mmHg 52%
    15:00 +33°C° 0.2 mm 1 mps 734 mmHg 60%
    16:00 +31°C° 0.2 mm 1 mps 734 mmHg 68%
    17:00 +30°C° 0.1 mm 1 mps 734 mmHg 74%
    18:00 +28°C° 0.1 mm 1 mps 735 mmHg 81%
    19:00 +24°C° 0.1 mm 0 mps 736 mmHg 88%
    20:00 +26°C° 0 mm 1 mps 736 mmHg 89%
    21:00 +26°C° 0 mm 1 mps 736 mmHg 90%
    22:00 +26°C° 0 mm 1 mps 737 mmHg 91%
    23:00 +25°C° 0 mm 1 mps 736 mmHg 93%

    19 November, Tuesday

    Time Temperature Precipitation Wind Pressure Humidity
    00:00 +25°C° 0 mm 1 mps 736 mmHg 95%
    01:00 +23°C° 0 mm 0 mps 736 mmHg 96%
    02:00 +22°C° 0 mm 0 mps 736 mmHg 97%
    03:00 +22°C° 0 mm 0 mps 736 mmHg 97%
    04:00 +22°C° 0 mm 0 mps 736 mmHg 98%
    05:00 +23°C° 0 mm 0 mps 736 mmHg 95%
    06:00 +23°C° 0 mm 0 mps 737 mmHg 92%
    07:00 +24°C° 0 mm 0 mps 738 mmHg 89%
    08:00 +28°C° 0 mm 1 mps 738 mmHg 80%
    09:00 +30°C° 0 mm 1 mps 738 mmHg 71%
    10:00 +31°C° 0 mm 1 mps 738 mmHg 62%
    11:00 +32°C° 0 mm 1 mps 737 mmHg 59%
    12:00 +33°C° 0 mm 1 mps 737 mmHg 56%
    13:00 +33°C° 0 mm 1 mps 736 mmHg 53%
    14:00 +33°C° 0 mm 1 mps 735 mmHg 56%
    15:00 +33°C° 0 mm 1 mps 735 mmHg 59%
    16:00 +30°C° 0 mm 0 mps 735 mmHg 62%
    17:00 +30°C° 0.3 mm 1 mps 735 mmHg 72%
    18:00 +28°C° 0.3 mm 1 mps 736 mmHg 82%
    19:00 +26°C° 0.3 mm 1 mps 736 mmHg 92%
    20:00 +25°C° 0 mm 1 mps 736 mmHg 93%
    21:00 +23°C° 0 mm 0 mps 737 mmHg 94%
    22:00 +23°C° 0 mm 0 mps 737 mmHg 94%
    23:00 +22°C° 0 mm 0 mps 737 mmHg 95%

    20 November, Wednesday

    Time Temperature Precipitation Wind Pressure Humidity
    00:00 +22°C° 0 mm 0 mps 737 mmHg 95%
    01:00 +22°C° 0 mm 0 mps 737 mmHg 96%
    02:00 +22°C° 0 mm 0 mps 737 mmHg 96%
    03:00 +22°C° 0 mm 0 mps 737 mmHg 97%
    04:00 +21°C° 0 mm 0 mps 737 mmHg 97%
    05:00 +22°C° 0 mm 0 mps 737 mmHg 94%
    06:00 +23°C° 0 mm 0 mps 738 mmHg 91%
    07:00 +24°C° 0 mm 0 mps 738 mmHg 88%
    08:00 +27°C° 0.5 mm 1 mps 738 mmHg 85%
    09:00 +29°C° 0.5 mm 1 mps 738 mmHg 81%
    10:00 +30°C° 0.5 mm 1 mps 738 mmHg 78%
    11:00 +30°C° 1.1 mm 2 mps 738 mmHg 81%
    12:00 +29°C° 1.1 mm 2 mps 737 mmHg 85%
    13:00 +29°C° 1.1 mm 2 mps 737 mmHg 88%
    14:00 +29°C° 0.8 mm 1 mps 736 mmHg 89%
    15:00 +28°C° 0.8 mm 1 mps 736 mmHg 90%
    16:00 +28°C° 0.8 mm 1 mps 735 mmHg 92%
    17:00 +25°C° 0.1 mm 0 mps 736 mmHg 93%
    18:00 +24°C° 0.1 mm 0 mps 736 mmHg 94%
    19:00 +23°C° 0.1 mm 0 mps 737 mmHg 96%
    20:00 +23°C° 0 mm 0 mps 737 mmHg 96%
    21:00 +23°C° 0 mm 0 mps 737 mmHg 95%
    22:00 +25°C° 0 mm 1 mps 737 mmHg 95%
    23:00 +24°C° 0 mm 1 mps 737 mmHg 95%
    Show more